[[{"header":{"parameterUnit":"m.s-1","parameterCategory":2,"la1":30.2992,"la2":30.254,"lo1":-89.0895,"lo2":-89.0443,"dy":0.0025,"dx":0.0025,"nx":19,"ny":19,"refTime":"2026-03-22T09:00:00:Z","depth":"0","parameterNumber":2,"parameterNumberName":"U-component_of_CURRENTS"},"data":[0,0,0,0.2396,0.2398,0.2605,0.2607,0.2893,0.2895,0,0,0,0,0,0,0,0,0,0,0,0.2348,0.2349,0.2396,0.2399,0.2605,0.2607,0.2893,0.2895,0,0,0,0,0,0,0,0,0,0,0,0.2348,0.2349,0.235,0.2399,0.2605,0.2607,0.2892,0.2743,0,0,0,0,0,0,0,0,0,0,0.2545,0.246,0.2349,0.235,0.24,0.2604,0.2607,0.2737,0.2753,0.2789,0,0.2807,0,0.2825,0.291,0.2911,0,0,0,0.2451,0.2446,0.2507,0.235,0.2401,0.2604,0.2527,0.2746,0.2764,0.281,0.2811,0.2821,0.2829,0.2911,0.2912,0.3192,0.3193,0,0,0.244,0.2389,0.2494,0.2518,0.2437,0.252,0.2532,0.2757,0.2765,0.2812,0.2827,0.2834,0.2913,0.2914,0.3191,0.3192,0,0,0,0.2372,0.238,0.2437,0.2507,0.2524,0.2524,0.2539,0.2756,0.2776,0.283,0.2837,0.2914,0.2917,0.3189,0.3191,0.3135,0,0,0,0.2367,0.2337,0.2431,0.2404,0.2519,0.2632,0.2532,0.2762,0.2787,0.2836,0.2914,0.2919,0.3188,0.319,0.3133,0.3072,0,0,0,0.2342,0.2333,0.2354,0.24,0.2464,0.2629,0.2664,0.2769,0.2788,0.2911,0.292,0.3187,0.319,0.3132,0.3072,0.3017,0,0,0,0.2291,0.2337,0.2352,0.2409,0.2461,0.2634,0.2663,0.2815,0.2926,0.2915,0.3188,0.3191,0.3131,0.3072,0.3018,0.2772,0.2749,0,0,0.2328,0.234,0.2378,0.2396,0.2526,0.261,0.2759,0.2907,0.2988,0.312,0.3128,0.3134,0.3072,0.3018,0.2966,0.2935,0,0,0,0.2377,0.2414,0.2458,0.2525,0.2635,0.2744,0.2891,0.2958,0.3113,0.3056,0.3218,0.3182,0.3148,0.3005,0.2984,0.2875,0.3207,0.3206,0.3206,0.2368,0.2434,0.2516,0.2624,0.2712,0.2868,0.2957,0.3084,0.3158,0.3232,0.32,0.3205,0.3061,0.3039,0.2935,0.3294,0.3294,0.3294,0.3294,0.2443,0.2481,0.2554,0.2659,0.2744,0.2862,0.3018,0.3082,0.3174,0.3249,0.3218,0.3034,0.301,0.2908,0.3292,0.3292,0.3293,0.3293,0.3293,0.2422,0.2451,0.2515,0.2638,0.2714,0.2834,0.2892,0.3024,0.3103,0.3106,0.2942,0.294,0.2785,0.3091,0.309,0.309,0.3089,0.3089,0.3089,0.2357,0.2433,0.2506,0.2621,0.2658,0.2721,0.284,0.2865,0.2842,0.285,0.2848,0.2779,0.3142,0.3076,0.3081,0.3083,0.3084,0.3084,0.3085,0.2369,0.2369,0.2481,0.2533,0.2619,0.2532,0.2671,0.2546,0.2569,0.2466,0.2406,0.271,0.2686,0.2703,0.2629,0.2518,0.2518,0.2518,0.2518,0.2323,0.2355,0.2427,0.2479,0.25,0.2447,0.2211,0.2136,0.2074,0.2004,0.2119,0.211,0.2138,0.2085,0.2117,0.2035,0.1775,0.1774,0.1774,0.2336,0.2351,0.2357,0.2405,0.2408,0.2261,0.1906,0.1648,0.1611,0.1746,0.2018,0.205,0.2053,0.2105,0.2042,0.2094,0.1969,0,0]},{"header":{"parameterUnit":"m.s-1","parameterCategory":2,"la1":30.2992,"la2":30.254,"lo1":-89.0895,"lo2":-89.0443,"dy":0.0025,"dx":0.0025,"nx":19,"ny":19,"refTime":"2026-03-22T09:00:00:Z","depth":"0","parameterNumber":3,"parameterNumberName":"V-component_of_CURRENTS"},"data":[0,0,0,0.0183,0.0183,0.0174,0.0174,0.0172,0.0172,0,0,0,0,0,0,0,0,0,0,0,0.0183,0.0183,0.0183,0.0183,0.0174,0.0174,0.0172,0.0172,0,0,0,0,0,0,0,0,0,0,0,0.0183,0.0183,0.0183,0.0183,0.0174,0.0174,0.0172,0.0175,0,0,0,0,0,0,0,0,0,0,0.0181,0.0186,0.0183,0.0183,0.0183,0.0174,0.0174,0.0175,0.0175,0.0181,0,0.0182,0,0.0181,0.0173,0.0173,0,0,0,0.0176,0.0186,0.0183,0.0183,0.0183,0.0174,0.0176,0.0175,0.0174,0.0181,0.0182,0.0182,0.0181,0.0173,0.0173,0.034,0.0342,0,0,0.0177,0.0183,0.0183,0.0183,0.0184,0.0177,0.0176,0.0174,0.0177,0.0182,0.0182,0.0181,0.0173,0.0173,0.0338,0.034,0,0,0,0.0183,0.0183,0.0179,0.0183,0.0183,0.0177,0.0176,0.0177,0.0175,0.0182,0.0181,0.0173,0.0173,0.0336,0.0339,0.0461,0,0,0,0.0183,0.0187,0.0179,0.0183,0.0183,0.018,0.0179,0.0175,0.0175,0.0181,0.0173,0.0173,0.0334,0.0338,0.0453,0.0497,0,0,0,0.0183,0.0187,0.0187,0.0183,0.0183,0.018,0.0178,0.0175,0.0175,0.0173,0.0173,0.0333,0.0337,0.0447,0.0486,0.0573,0,0,0,0.0188,0.02,0.0187,0.0206,0.0183,0.0218,0.0178,0.0194,0.0197,0.0173,0.0335,0.0339,0.0444,0.0479,0.0567,0.0529,0.0557,0,0,0.0207,0.0202,0.0215,0.0204,0.024,0.0218,0.0308,0.0285,0.0271,0.0329,0.0333,0.0456,0.0485,0.0572,0.077,0.0791,0,0,0,0.0225,0.0237,0.0244,0.0263,0.0277,0.035,0.0335,0.0379,0.0461,0.0294,0.0507,0.0523,0.0572,0.0538,0.0556,0.0508,0.0358,0.0358,0.0357,0.0265,0.0273,0.0315,0.0343,0.0379,0.0448,0.0535,0.0607,0.055,0.0642,0.066,0.0861,0.083,0.0841,0.0796,0.0709,0.071,0.071,0.0711,0.0322,0.0349,0.0389,0.0431,0.0507,0.0587,0.0743,0.077,0.0928,0.0851,0.0893,0.0716,0.0867,0.0811,0.0719,0.0718,0.0717,0.0716,0.0715,0.0351,0.0368,0.0401,0.0488,0.0601,0.0691,0.0894,0.0983,0.1031,0.111,0.1036,0.1033,0.0946,0.1114,0.1115,0.1115,0.1116,0.1116,0.1117,0.0361,0.04,0.0468,0.0557,0.063,0.0784,0.0991,0.1107,0.1181,0.1177,0.1176,0.103,0.0983,0.0924,0.1126,0.1125,0.1123,0.1122,0.1122,0.0397,0.0419,0.0515,0.0591,0.0779,0.0967,0.1115,0.1284,0.1364,0.1378,0.1209,0.1219,0.117,0.1154,0.11,0.1336,0.1336,0.1336,0.1336,0.0426,0.0442,0.0586,0.0719,0.0903,0.1069,0.1306,0.1387,0.1351,0.1294,0.1275,0.1169,0.1162,0.1105,0.109,0.1032,0.1246,0.1246,0.1246,0.0482,0.0509,0.0626,0.0752,0.096,0.119,0.1385,0.1424,0.1304,0.1239,0.123,0.1234,0.1069,0.1062,0.0956,0.0939,0.0836,0,0]}],[{"header":{"parameterUnit":"m.s-1","parameterCategory":2,"la1":30.2992,"la2":30.254,"lo1":-89.0895,"lo2":-89.0443,"dy":0.0025,"dx":0.0025,"nx":19,"ny":19,"refTime":"2026-03-22T09:00:00:Z","depth":"2","parameterNumber":2,"parameterNumberName":"U-component_of_CURRENTS"},"data":[0,0,0,0.186,0.1862,0.1886,0.1886,0.2127,0.213,0,0,0,0,0,0,0,0,0,0,0,0.1792,0.1792,0.1859,0.1863,0.1886,0.1886,0.2126,0.213,0,0,0,0,0,0,0,0,0,0,0,0.1792,0.1792,0.1792,0.1863,0.1887,0.1886,0.2125,0.2039,0,0,0,0,0,0,0,0,0,0,0.1983,0.1959,0.1792,0.1792,0.1864,0.1887,0.1885,0.2032,0.2045,0.2196,0,0.2195,0,0.2233,0.2157,0.2159,0,0,0,0.1798,0.1948,0.1935,0.1792,0.1865,0.1887,0.1857,0.2037,0.2052,0.2215,0.2199,0.2209,0.2237,0.216,0.2162,0.2541,0.2542,0,0,0.1797,0.1825,0.1923,0.1943,0.1875,0.1857,0.1859,0.2043,0.208,0.22,0.2215,0.2241,0.2162,0.2165,0.254,0.2541,0,0,0,0.1836,0.1825,0.18,0.1933,0.1957,0.1859,0.1861,0.2069,0.2054,0.2217,0.2244,0.2165,0.217,0.2539,0.2541,0.2604,0,0,0,0.1832,0.1853,0.18,0.1821,0.1952,0.2004,0.1884,0.2037,0.2062,0.2243,0.2165,0.2173,0.2538,0.254,0.2599,0.2584,0,0,0,0.179,0.1852,0.1845,0.1822,0.1865,0.1999,0.1991,0.204,0.2086,0.2159,0.2175,0.2537,0.2539,0.2595,0.2579,0.2505,0,0,0,0.1826,0.1832,0.1846,0.1864,0.1865,0.1919,0.1989,0.2084,0.2147,0.2167,0.2538,0.254,0.2594,0.2576,0.2503,0.2199,0.218,0,0,0.1844,0.1837,0.1835,0.1849,0.1913,0.1911,0.2021,0.2152,0.2244,0.2479,0.2485,0.2601,0.2579,0.2504,0.2357,0.2332,0,0,0,0.1846,0.1856,0.1877,0.1914,0.1952,0.2058,0.2146,0.2229,0.2438,0.231,0.2639,0.2623,0.2572,0.2389,0.2372,0.2553,0.2553,0.2553,0.2552,0.1861,0.1867,0.1916,0.1963,0.2031,0.2178,0.2277,0.2424,0.2498,0.2622,0.2705,0.273,0.2543,0.2524,0.2762,0.2762,0.2762,0.2762,0.2763,0.1916,0.1917,0.1978,0.2041,0.2139,0.2243,0.2471,0.2562,0.2731,0.279,0.2739,0.2504,0.2506,0.2768,0.2767,0.2766,0.2766,0.2765,0.2765,0.1904,0.1913,0.1968,0.2093,0.2178,0.2318,0.2452,0.263,0.2765,0.281,0.2512,0.2507,0.2681,0.2754,0.2754,0.2753,0.2753,0.2753,0.2753,0.1871,0.193,0.1995,0.2126,0.2171,0.2276,0.2446,0.2497,0.2485,0.252,0.2516,0.2724,0.2725,0.2679,0.2748,0.2748,0.2749,0.275,0.275,0.1864,0.1867,0.1999,0.2057,0.2174,0.2101,0.2259,0.2143,0.2196,0.2081,0.2326,0.2338,0.2254,0.2265,0.2208,0.215,0.215,0.215,0.2149,0.1808,0.1832,0.1957,0.2037,0.2099,0.2022,0.183,0.1756,0.1792,0.1803,0.182,0.1793,0.1822,0.1715,0.1739,0.1672,0.1475,0.1474,0.1474,0.1812,0.1836,0.1902,0.198,0.2016,0.186,0.1514,0.1285,0.1273,0.1461,0.1842,0.2077,0.208,0.2111,0.198,0.2006,0.1912,0,0]},{"header":{"parameterUnit":"m.s-1","parameterCategory":2,"la1":30.2992,"la2":30.254,"lo1":-89.0895,"lo2":-89.0443,"dy":0.0025,"dx":0.0025,"nx":19,"ny":19,"refTime":"2026-03-22T09:00:00:Z","depth":"2","parameterNumber":3,"parameterNumberName":"V-component_of_CURRENTS"},"data":[0,0,0,0.0085,0.0085,0.0065,0.0065,0.0023,0.0023,0,0,0,0,0,0,0,0,0,0,0,0.0084,0.0084,0.0085,0.0085,0.0065,0.0064,0.0023,0.0023,0,0,0,0,0,0,0,0,0,0,0,0.0083,0.0084,0.0084,0.0085,0.0065,0.0064,0.0023,0.0037,0,0,0,0,0,0,0,0,0,0,0.0057,0.0071,0.0084,0.0084,0.0086,0.0065,0.0064,0.0038,0.0037,0.0035,0,0.0041,0,0.0045,0.0022,0.0022,0,0,0,0.0064,0.0073,0.0067,0.0084,0.0086,0.0065,0.0068,0.0037,0.0035,0.0033,0.004,0.0039,0.0044,0.0022,0.0022,0.0132,0.0134,0,0,0.0065,0.0077,0.0069,0.0067,0.0092,0.0069,0.0068,0.0036,0.0039,0.004,0.0038,0.0043,0.0022,0.0022,0.0131,0.0133,0,0,0,0.0083,0.0078,0.0072,0.0068,0.0073,0.0069,0.0067,0.004,0.0039,0.0038,0.0043,0.0022,0.0021,0.013,0.0132,0.0283,0,0,0,0.0082,0.009,0.0073,0.0079,0.0074,0.0061,0.0073,0.004,0.0038,0.0043,0.0022,0.0021,0.0128,0.0131,0.0275,0.0341,0,0,0,0.0082,0.009,0.0091,0.008,0.0082,0.0062,0.0058,0.0039,0.0042,0.0022,0.0021,0.0127,0.013,0.0269,0.033,0.0413,0,0,0,0.0089,0.0098,0.0091,0.0111,0.0082,0.0075,0.0058,0.0031,0.0011,0.0022,0.0128,0.0132,0.0267,0.0323,0.0406,0.0303,0.0326,0,0,0.0102,0.01,0.0113,0.0107,0.0117,0.0076,0.0125,0.0082,0.0073,0.013,0.0132,0.0278,0.033,0.0411,0.0487,0.0505,0,0,0,0.0119,0.013,0.0129,0.0142,0.0128,0.0176,0.012,0.0162,0.0246,0.0084,0.03,0.0329,0.0375,0.0299,0.0315,0.0147,0.0146,0.0146,0.0146,0.0151,0.0156,0.0186,0.0197,0.0206,0.0231,0.031,0.0373,0.0302,0.0399,0.0469,0.0658,0.0581,0.059,0.0487,0.0487,0.0488,0.0488,0.0489,0.0187,0.0213,0.0251,0.028,0.0337,0.038,0.0522,0.0548,0.0723,0.0644,0.0681,0.0483,0.0615,0.0501,0.0499,0.0497,0.0496,0.0495,0.0494,0.02,0.0218,0.0252,0.0331,0.0438,0.0503,0.0721,0.0807,0.0861,0.0955,0.0813,0.0808,0.0731,0.0946,0.0947,0.0948,0.0948,0.0949,0.0949,0.0195,0.0233,0.0296,0.0386,0.0469,0.0631,0.0841,0.0957,0.0996,0.0978,0.0976,0.0811,0.0796,0.0757,0.096,0.0958,0.0957,0.0956,0.0955,0.0213,0.0238,0.0328,0.0411,0.0621,0.0818,0.0962,0.1092,0.1167,0.1149,0.099,0.0985,0.092,0.0904,0.0867,0.1087,0.1087,0.1087,0.1087,0.0243,0.0252,0.0407,0.0548,0.0756,0.0923,0.1136,0.1153,0.1101,0.1014,0.1018,0.0888,0.0883,0.0808,0.0794,0.0751,0.0941,0.0941,0.0941,0.0299,0.0329,0.0465,0.0593,0.0824,0.1055,0.1195,0.1114,0.0934,0.0939,0.1027,0.1071,0.088,0.0874,0.0749,0.0731,0.0657,0,0]}],[{"header":{"parameterUnit":"m.s-1","parameterCategory":2,"la1":30.2992,"la2":30.254,"lo1":-89.0895,"lo2":-89.0443,"dy":0.0025,"dx":0.0025,"nx":19,"ny":19,"refTime":"2026-03-22T09:00:00:Z","depth":"4","parameterNumber":2,"parameterNumberName":"U-component_of_CURRENTS"},"data":[0,0,0,0.0448,0.0447,0.0411,0.0411,0.0376,0.0376,0,0,0,0,0,0,0,0,0,0,0,0.0486,0.0487,0.0448,0.0447,0.0411,0.0411,0.0376,0.0376,0,0,0,0,0,0,0,0,0,0,0,0.0485,0.0486,0.0488,0.0447,0.0411,0.0411,0.0376,0.0395,0,0,0,0,0,0,0,0,0,0,0.0427,0.0444,0.0486,0.0488,0.0447,0.0411,0.0411,0.0396,0.0394,0.0402,0,0.0433,0,0.0403,0.0375,0.0375,0,0,0,0.0427,0.0446,0.0461,0.0488,0.0447,0.0411,0.0422,0.0395,0.0393,0.04,0.0432,0.043,0.0402,0.0375,0.0375,0.043,0.0431,0,0,0.0429,0.0444,0.0463,0.0461,0.0486,0.0423,0.0421,0.0393,0.0397,0.0432,0.0428,0.0402,0.0375,0.0375,0.043,0.043,0,0,0,0.0448,0.0446,0.046,0.0464,0.0456,0.0422,0.042,0.0398,0.0412,0.0427,0.0401,0.0375,0.0375,0.0429,0.043,0.0514,0,0,0,0.0449,0.0459,0.0463,0.0466,0.0458,0.0418,0.0426,0.0414,0.0409,0.0401,0.0375,0.0375,0.0428,0.043,0.051,0.0498,0,0,0,0.0479,0.046,0.0477,0.0468,0.0461,0.0418,0.0427,0.0412,0.0394,0.0375,0.0375,0.0428,0.0429,0.0507,0.0494,0.0628,0,0,0,0.0464,0.0432,0.0478,0.0432,0.0462,0.0387,0.0426,0.0366,0.0343,0.0375,0.0428,0.043,0.0506,0.0491,0.0623,0.0473,0,0,0,0.0392,0.0424,0.0391,0.043,0.0366,0.0388,0.0353,0.0355,0.0381,0.0433,0.0434,0.0512,0.0494,0.0627,0.056,0,0,0,0,0.0344,0.0339,0.0321,0.0314,0.029,0.0327,0.0316,0.0365,0.0459,0.0382,0.0518,0.0503,0.0586,0.0485,0.0437,0.0437,0.0437,0.0437,0.0436,0.0336,0.0307,0.0254,0.0244,0.0238,0.0278,0.0332,0.042,0.0439,0.0526,0.0579,0.0736,0.0631,0.0612,0.0612,0.0613,0.0613,0.0613,0.0614,0.0227,0.0191,0.0228,0.0167,0.0259,0.0284,0.041,0.0483,0.0668,0.0643,0.0724,0.0585,0.0622,0.062,0.0619,0.0618,0.0617,0.0617,0.0617,0.0224,0.0182,0.0179,0.0139,0.0254,0.0346,0.0498,0.0612,0.0732,0.0817,0.0797,0.0807,0.0797,0.0923,0.0924,0.0924,0.0925,0.0925,0.0925,0.0187,0.0158,0.0122,0.013,0.0205,0.0356,0.057,0.0667,0.0801,0.0847,0.088,0.084,0.083,0.0815,0.0934,0.0933,0.0931,0.0931,0.093,0.0012,0.0106,0.0014,0.0051,0.0172,0.0312,0.0526,0.0714,0.0847,0.09,0.0887,0.0886,0.0848,0.0839,0.0821,0.0948,0.0946,0.0945,0,-0.0028,-0.0021,-0.0063,-0.0035,0.0068,0.0278,0.0457,0.0603,0.0747,0.0747,0.0811,0.0788,0.0789,0.0731,0.0721,0.0692,0,0,0,-0.017,-0.0115,-0.0159,-0.009,0.0034,0.0297,0.0511,0.0561,0.0752,0.0777,0.0908,0.0918,0.0793,0.096,0.0902,0.0889,0.0862,0,0]},{"header":{"parameterUnit":"m.s-1","parameterCategory":2,"la1":30.2992,"la2":30.254,"lo1":-89.0895,"lo2":-89.0443,"dy":0.0025,"dx":0.0025,"nx":19,"ny":19,"refTime":"2026-03-22T09:00:00:Z","depth":"4","parameterNumber":3,"parameterNumberName":"V-component_of_CURRENTS"},"data":[0,0,0,0.0214,0.0216,0.0312,0.0312,0.0339,0.0339,0,0,0,0,0,0,0,0,0,0,0,0.0185,0.0185,0.0214,0.0216,0.0312,0.0312,0.0339,0.0339,0,0,0,0,0,0,0,0,0,0,0,0.0185,0.0185,0.0186,0.0216,0.0312,0.0312,0.034,0.0295,0,0,0,0,0,0,0,0,0,0,0.0216,0.0199,0.0185,0.0186,0.0217,0.0311,0.0312,0.0294,0.0298,0.0264,0,0.0274,0,0.0295,0.0337,0.0337,0,0,0,0.0233,0.0196,0.0214,0.0186,0.0217,0.0311,0.0273,0.0297,0.0301,0.0268,0.0275,0.0276,0.0296,0.0337,0.0337,0.0343,0.0343,0,0,0.0227,0.0209,0.0212,0.0217,0.0234,0.027,0.0276,0.0301,0.0302,0.0275,0.0278,0.0296,0.0337,0.0337,0.0343,0.0343,0,0,0,0.0201,0.0205,0.0226,0.0215,0.0234,0.0272,0.0279,0.0302,0.0307,0.0278,0.0297,0.0337,0.0336,0.0343,0.0343,0.0362,0,0,0,0.0199,0.0188,0.0223,0.0214,0.0233,0.0282,0.028,0.0306,0.0309,0.0296,0.0337,0.0336,0.0342,0.0343,0.036,0.0374,0,0,0,0.0182,0.0187,0.0194,0.0213,0.0246,0.0282,0.0291,0.0308,0.0319,0.0337,0.0336,0.0342,0.0343,0.0359,0.0372,0.0395,0,0,0,0.0165,0.0187,0.0194,0.023,0.0245,0.0309,0.0292,0.0343,0.0364,0.0337,0.0342,0.0343,0.0359,0.0371,0.0394,0.036,0,0,0,0.0186,0.0189,0.0214,0.0222,0.029,0.0298,0.0341,0.0359,0.0357,0.0329,0.033,0.0361,0.0372,0.0395,0.0399,0,0,0,0,0.0217,0.0233,0.0253,0.0296,0.0335,0.0352,0.0376,0.0371,0.0381,0.0369,0.0369,0.0376,0.0389,0.0366,0.0346,0.0346,0.0346,0.0346,0.0346,0.0213,0.0255,0.0302,0.0345,0.0372,0.0397,0.0399,0.0393,0.0393,0.0402,0.0397,0.0436,0.0412,0.0401,0.0401,0.0401,0.0401,0.0401,0.0401,0.0256,0.0286,0.0328,0.039,0.0404,0.0431,0.0417,0.0416,0.042,0.0417,0.0429,0.0395,0.0403,0.0403,0.0402,0.0402,0.0402,0.0402,0.0402,0.0256,0.0276,0.0329,0.0418,0.0447,0.0459,0.0475,0.0471,0.0454,0.0457,0.0459,0.0455,0.0447,0.0486,0.0486,0.0486,0.0487,0.0487,0.0487,0.0235,0.0289,0.0366,0.0444,0.0494,0.0531,0.0535,0.0516,0.05,0.0485,0.0489,0.0465,0.0462,0.0453,0.0489,0.0489,0.0489,0.0488,0.0488,0.025,0.0283,0.0393,0.0468,0.0569,0.0588,0.0605,0.0542,0.0528,0.0489,0.0489,0.0488,0.0481,0.0478,0.0469,0.0512,0.0511,0.0511,0,0.0243,0.0273,0.0418,0.0532,0.0597,0.0617,0.0595,0.0547,0.0499,0.0517,0.0511,0.0513,0.0511,0.0504,0.0501,0.0492,0,0,0,0.026,0.0305,0.0401,0.0524,0.0609,0.0577,0.0573,0.0547,0.0543,0.0461,0.0504,0.0506,0.0443,0.0497,0.0484,0.0481,0.0466,0,0]}]]